Time,TemperatureF,DewpointF,PressureIn,WindDirection,WindDirectionDegrees,WindSpeedMPH,WindSpeedGustMPH,Humidity,HourlyPrecipIn,Conditions,Clouds,dailyrainin,SoftwareType,DateUTC
2013-06-24 00:00:00,76.4,74.2,30.12,ESE,107,0.0,0.0,93,0.00,,,0.00,Wunderground v.1.15,2013-06-24 04:00:00,
2013-06-24 00:05:00,76.3,74.1,30.12,ESE,107,0.0,0.0,93,0.00,,,0.00,Wunderground v.1.15,2013-06-24 04:05:00,
2013-06-24 00:10:00,76.2,74.0,30.12,ESE,107,0.0,2.0,93,0.00,,,0.00,Wunderground v.1.15,2013-06-24 04:10:00,
2013-06-24 00:15:00,76.2,74.0,30.11,ESE,107,1.0,2.0,93,0.00,,,0.00,Wunderground v.1.15,2013-06-24 04:15:00,
2013-06-24 00:20:00,76.1,73.9,30.11,ESE,107,1.0,3.0,93,0.00,,,0.00,Wunderground v.1.15,2013-06-24 04:20:00,
2013-06-24 00:25:00,76.0,74.1,30.11,ESE,107,1.0,3.0,94,0.00,,,0.00,Wunderground v.1.15,2013-06-24 04:25:00,
2013-06-24 00:35:00,76.0,74.1,30.11,ESE,107,2.0,3.0,94,0.00,,,0.00,Wunderground v.1.15,2013-06-24 04:35:00,
2013-06-24 00:40:00,76.0,74.1,30.11,ESE,107,2.0,2.0,94,0.00,,,0.00,Wunderground v.1.15,2013-06-24 04:40:00,
2013-06-24 00:45:00,76.0,74.1,30.11,ESE,107,1.0,2.0,94,0.00,,,0.00,Wunderground v.1.15,2013-06-24 04:45:00,
2013-06-24 00:50:00,76.0,74.1,30.11,ESE,107,1.0,1.0,94,0.00,,,0.00,Wunderground v.1.15,2013-06-24 04:50:00,
2013-06-24 00:55:00,75.9,74.0,30.11,ESE,107,1.0,1.0,94,0.00,,,0.00,Wunderground v.1.15,2013-06-24 04:55:00,
2013-06-24 01:05:00,75.8,73.9,30.11,ESE,107,2.0,2.0,94,0.00,,,0.00,Wunderground v.1.15,2013-06-24 05:05:00,
2013-06-24 01:15:00,75.8,73.9,30.10,ESE,107,2.0,2.0,94,0.00,,,0.00,Wunderground v.1.15,2013-06-24 05:15:00,
2013-06-24 01:20:00,75.7,73.8,30.10,ESE,107,2.0,2.0,94,0.00,,,0.00,Wunderground v.1.15,2013-06-24 05:20:00,
2013-06-24 01:25:00,75.7,73.8,30.10,ESE,107,2.0,3.0,94,0.00,,,0.00,Wunderground v.1.15,2013-06-24 05:25:00,
2013-06-24 01:30:00,75.6,73.8,30.10,ESE,107,2.0,2.0,94,0.00,,,0.00,Wunderground v.1.15,2013-06-24 05:30:00,
2013-06-24 01:40:00,75.5,73.7,30.10,ESE,107,2.0,2.0,94,0.00,,,0.00,Wunderground v.1.15,2013-06-24 05:40:00,
2013-06-24 01:45:00,75.5,73.7,30.10,ESE,107,2.0,2.0,94,0.00,,,0.00,Wunderground v.1.15,2013-06-24 05:45:00,
2013-06-24 01:50:00,75.4,73.6,30.10,ESE,107,2.0,2.0,94,0.00,,,0.00,Wunderground v.1.15,2013-06-24 05:50:00,
2013-06-24 01:55:00,75.4,73.6,30.10,ESE,107,2.0,2.0,94,0.00,,,0.00,Wunderground v.1.15,2013-06-24 05:55:00,
2013-06-24 02:00:00,75.4,73.6,30.10,ESE,107,2.0,2.0,94,0.00,,,0.00,Wunderground v.1.15,2013-06-24 06:00:00,
2013-06-24 02:05:00,75.3,73.5,30.10,ESE,107,2.0,2.0,94,0.00,,,0.00,Wunderground v.1.15,2013-06-24 06:05:00,
2013-06-24 02:10:00,75.3,73.5,30.10,ESE,107,2.0,2.0,94,0.00,,,0.00,Wunderground v.1.15,2013-06-24 06:10:00,
2013-06-24 02:15:00,75.3,73.5,30.10,ESE,107,2.0,2.0,94,0.00,,,0.00,Wunderground v.1.15,2013-06-24 06:15:00,
2013-06-24 02:20:00,75.3,73.5,30.10,ESE,107,2.0,2.0,94,0.00,,,0.00,Wunderground v.1.15,2013-06-24 06:20:00,
2013-06-24 02:25:00,75.3,73.5,30.10,ESE,107,2.0,2.0,94,0.00,,,0.00,Wunderground v.1.15,2013-06-24 06:25:00,
2013-06-24 02:30:00,75.3,73.5,30.10,ESE,107,2.0,2.0,94,0.00,,,0.00,Wunderground v.1.15,2013-06-24 06:30:00,
2013-06-24 02:35:00,75.3,73.5,30.10,ESE,107,2.0,3.0,94,0.00,,,0.00,Wunderground v.1.15,2013-06-24 06:35:00,
2013-06-24 02:40:00,75.2,73.7,30.10,ESE,107,2.0,2.0,95,0.00,,,0.00,Wunderground v.1.15,2013-06-24 06:40:00,
2013-06-24 02:50:00,75.1,73.6,30.09,ESE,107,2.0,3.0,95,0.00,,,0.00,Wunderground v.1.15,2013-06-24 06:50:00,
2013-06-24 02:55:00,75.1,73.6,30.09,ESE,107,1.0,3.0,95,0.00,,,0.00,Wunderground v.1.15,2013-06-24 06:55:00,
2013-06-24 03:05:00,74.9,73.4,30.09,ESE,107,0.0,1.0,95,0.00,,,0.00,Wunderground v.1.15,2013-06-24 07:05:00,
2013-06-24 03:10:00,74.9,73.4,30.09,ESE,107,0.0,0.0,95,0.00,,,0.00,Wunderground v.1.15,2013-06-24 07:10:00,
2013-06-24 03:15:00,74.8,73.3,30.09,ESE,107,0.0,0.0,95,0.00,,,0.00,Wunderground v.1.15,2013-06-24 07:15:00,
2013-06-24 03:20:00,74.8,73.3,30.09,ESE,107,1.0,2.0,95,0.00,,,0.00,Wunderground v.1.15,2013-06-24 07:20:00,
2013-06-24 03:25:00,74.8,73.3,30.09,ESE,107,1.0,2.0,95,0.00,,,0.00,Wunderground v.1.15,2013-06-24 07:25:00,
2013-06-24 03:30:00,74.7,73.2,30.09,ESE,107,0.0,0.0,95,0.00,,,0.00,Wunderground v.1.15,2013-06-24 07:30:00,
2013-06-24 03:35:00,74.6,73.1,30.09,ESE,107,0.0,0.0,95,0.00,,,0.00,Wunderground v.1.15,2013-06-24 07:35:00,
2013-06-24 03:40:00,74.6,73.1,30.09,ESE,107,0.0,0.0,95,0.00,,,0.00,Wunderground v.1.15,2013-06-24 07:40:00,
2013-06-24 03:45:00,74.5,73.0,30.08,ESE,107,0.0,0.0,95,0.00,,,0.00,Wunderground v.1.15,2013-06-24 07:45:00,
2013-06-24 03:50:00,74.4,72.9,30.08,ESE,107,0.0,0.0,95,0.00,,,0.00,Wunderground v.1.15,2013-06-24 07:50:00,
2013-06-24 03:55:00,74.4,72.9,30.09,ESE,107,0.0,0.0,95,0.00,,,0.00,Wunderground v.1.15,2013-06-24 07:55:00,
2013-06-24 04:00:00,74.2,72.7,30.08,ESE,107,0.0,0.0,95,0.00,,,0.00,Wunderground v.1.15,2013-06-24 08:00:00,
2013-06-24 04:05:00,74.2,72.7,30.08,ESE,107,0.0,0.0,95,0.00,,,0.00,Wunderground v.1.15,2013-06-24 08:05:00,
2013-06-24 04:10:00,74.2,72.7,30.08,ESE,107,0.0,0.0,95,0.00,,,0.00,Wunderground v.1.15,2013-06-24 08:10:00,
2013-06-24 04:15:00,74.2,72.7,30.09,ESE,107,0.0,0.0,95,0.00,,,0.00,Wunderground v.1.15,2013-06-24 08:15:00,
2013-06-24 04:20:00,74.2,72.7,30.09,ESE,107,0.0,0.0,95,0.00,,,0.00,Wunderground v.1.15,2013-06-24 08:20:00,
2013-06-24 04:25:00,74.3,72.8,30.09,ESE,107,0.0,0.0,95,0.00,,,0.00,Wunderground v.1.15,2013-06-24 08:25:00,
2013-06-24 04:35:00,74.3,72.8,30.09,ESE,107,0.0,0.0,95,0.00,,,0.00,Wunderground v.1.15,2013-06-24 08:35:00,
2013-06-24 04:40:00,74.3,72.8,30.09,ESE,107,0.0,0.0,95,0.00,,,0.00,Wunderground v.1.15,2013-06-24 08:40:00,
2013-06-24 04:45:00,74.4,72.9,30.09,ESE,107,0.0,0.0,95,0.00,,,0.00,Wunderground v.1.15,2013-06-24 08:45:00,
2013-06-24 04:55:00,74.4,72.9,30.09,ESE,107,0.0,0.0,95,0.00,,,0.00,Wunderground v.1.15,2013-06-24 08:55:00,
2013-06-24 05:00:00,74.3,72.8,30.09,ESE,107,0.0,0.0,95,0.00,,,0.00,Wunderground v.1.15,2013-06-24 09:00:00,
2013-06-24 05:05:00,74.3,72.8,30.09,ESE,107,0.0,0.0,95,0.00,,,0.00,Wunderground v.1.15,2013-06-24 09:05:00,
2013-06-24 05:15:00,74.2,72.7,30.09,ESE,107,0.0,0.0,95,0.00,,,0.00,Wunderground v.1.15,2013-06-24 09:15:00,
2013-06-24 05:20:00,74.1,72.6,30.09,ESE,107,0.0,0.0,95,0.00,,,0.00,Wunderground v.1.15,2013-06-24 09:20:00,
2013-06-24 05:25:00,74.1,72.6,30.09,ESE,107,0.0,0.0,95,0.00,,,0.00,Wunderground v.1.15,2013-06-24 09:25:00,
2013-06-24 05:30:00,74.0,72.5,30.09,ESE,107,0.0,0.0,95,0.00,,,0.00,Wunderground v.1.15,2013-06-24 09:30:00,
2013-06-24 05:40:00,74.0,72.5,30.09,ESE,107,0.0,0.0,95,0.00,,,0.00,Wunderground v.1.15,2013-06-24 09:40:00,
2013-06-24 05:45:00,74.1,72.6,30.09,ESE,107,0.0,0.0,95,0.00,,,0.00,Wunderground v.1.15,2013-06-24 09:45:00,
2013-06-24 05:55:00,74.1,72.6,30.10,ESE,107,0.0,1.0,95,0.00,,,0.00,Wunderground v.1.15,2013-06-24 09:55:00,
2013-06-24 06:00:00,74.1,72.6,30.09,ESE,107,0.0,0.0,95,0.00,,,0.00,Wunderground v.1.15,2013-06-24 10:00:00,
2013-06-24 06:05:00,74.1,72.6,30.10,ESE,107,0.0,0.0,95,0.00,,,0.00,Wunderground v.1.15,2013-06-24 10:05:00,
2013-06-24 06:10:00,74.1,72.6,30.10,ESE,107,0.0,0.0,95,0.00,,,0.00,Wunderground v.1.15,2013-06-24 10:10:00,
2013-06-24 06:15:00,74.1,72.6,30.10,ESE,107,0.0,0.0,95,0.00,,,0.00,Wunderground v.1.15,2013-06-24 10:15:00,
2013-06-24 06:20:00,74.1,72.6,30.10,ESE,107,0.0,0.0,95,0.00,,,0.00,Wunderground v.1.15,2013-06-24 10:20:00,
2013-06-24 06:25:00,74.1,72.6,30.10,ESE,107,0.0,0.0,95,0.00,,,0.00,Wunderground v.1.15,2013-06-24 10:25:00,
2013-06-24 06:30:00,74.1,72.6,30.10,ESE,107,0.0,0.0,95,0.00,,,0.00,Wunderground v.1.15,2013-06-24 10:30:00,
2013-06-24 06:35:00,74.1,72.6,30.10,ESE,107,0.0,0.0,95,0.00,,,0.00,Wunderground v.1.15,2013-06-24 10:35:00,
2013-06-24 06:40:00,74.1,72.6,30.10,ESE,107,0.0,0.0,95,0.00,,,0.00,Wunderground v.1.15,2013-06-24 10:40:00,
2013-06-24 06:45:00,74.1,72.6,30.11,ESE,107,0.0,0.0,95,0.00,,,0.00,Wunderground v.1.15,2013-06-24 10:45:00,
2013-06-24 06:50:00,74.0,72.5,30.11,ESE,107,0.0,0.0,95,0.00,,,0.00,Wunderground v.1.15,2013-06-24 10:50:00,
2013-06-24 06:55:00,74.0,72.5,30.11,ESE,107,0.0,0.0,95,0.00,,,0.00,Wunderground v.1.15,2013-06-24 10:55:00,
2013-06-24 07:00:00,74.1,72.6,30.11,ESE,107,0.0,0.0,95,0.00,,,0.00,Wunderground v.1.15,2013-06-24 11:00:00,
2013-06-24 07:05:00,74.3,72.8,30.11,ESE,107,0.0,0.0,95,0.00,,,0.00,Wunderground v.1.15,2013-06-24 11:05:00,
2013-06-24 07:10:00,74.5,73.3,30.11,ESE,107,0.0,0.0,96,0.00,,,0.00,Wunderground v.1.15,2013-06-24 11:10:00,
2013-06-24 07:15:00,74.8,73.3,30.11,ESE,107,0.0,0.0,95,0.00,,,0.00,Wunderground v.1.15,2013-06-24 11:15:00,
2013-06-24 07:20:00,75.0,73.8,30.11,ESE,107,0.0,0.0,96,0.00,,,0.00,Wunderground v.1.15,2013-06-24 11:20:00,
2013-06-24 07:25:00,75.3,73.8,30.11,ESE,107,0.0,0.0,95,0.00,,,0.00,Wunderground v.1.15,2013-06-24 11:25:00,
2013-06-24 07:30:00,75.5,74.0,30.12,ESE,107,0.0,0.0,95,0.00,,,0.00,Wunderground v.1.15,2013-06-24 11:30:00,
2013-06-24 07:35:00,75.8,74.3,30.12,ESE,107,0.0,0.0,95,0.00,,,0.00,Wunderground v.1.15,2013-06-24 11:35:00,
2013-06-24 07:40:00,76.1,74.6,30.12,ESE,107,0.0,0.0,95,0.00,,,0.00,Wunderground v.1.15,2013-06-24 11:40:00,
2013-06-24 07:50:00,76.6,75.1,30.12,ESE,107,2.0,2.0,95,0.00,,,0.00,Wunderground v.1.15,2013-06-24 11:50:00,
2013-06-24 07:55:00,76.9,75.4,30.12,ESE,107,2.0,3.0,95,0.00,,,0.00,Wunderground v.1.15,2013-06-24 11:55:00,
2013-06-24 08:00:00,77.2,75.7,30.12,ESE,107,2.0,2.0,95,0.00,,,0.00,Wunderground v.1.15,2013-06-24 12:00:00,
2013-06-24 08:05:00,77.3,75.4,30.13,ESE,107,2.0,2.0,94,0.00,,,0.00,Wunderground v.1.15,2013-06-24 12:05:00,
2013-06-24 08:10:00,77.5,75.6,30.13,ESE,107,2.0,2.0,94,0.00,,,0.00,Wunderground v.1.15,2013-06-24 12:10:00,
2013-06-24 08:15:00,77.8,75.6,30.13,ESE,107,3.0,4.0,93,0.00,,,0.00,Wunderground v.1.15,2013-06-24 12:15:00,
2013-06-24 08:20:00,78.0,75.8,30.13,ESE,107,3.0,3.0,93,0.00,,,0.00,Wunderground v.1.15,2013-06-24 12:20:00,
2013-06-24 08:25:00,78.4,76.2,30.13,ESE,107,3.0,3.0,93,0.00,,,0.00,Wunderground v.1.15,2013-06-24 12:25:00,
2013-06-24 08:30:00,78.7,76.2,30.13,ESE,107,3.0,3.0,92,0.00,,,0.00,Wunderground v.1.15,2013-06-24 12:30:00,
2013-06-24 08:35:00,78.9,76.4,30.14,ESE,107,3.0,3.0,92,0.00,,,0.00,Wunderground v.1.15,2013-06-24 12:35:00,
2013-06-24 08:40:00,79.3,76.8,30.14,ESE,107,3.0,3.0,92,0.00,,,0.00,Wunderground v.1.15,2013-06-24 12:40:00,
2013-06-24 08:45:00,79.6,76.7,30.14,ESE,107,3.0,3.0,91,0.00,,,0.00,Wunderground v.1.15,2013-06-24 12:45:00,
2013-06-24 08:50:00,79.8,76.9,30.14,ESE,107,4.0,4.0,91,0.00,,,0.00,Wunderground v.1.15,2013-06-24 12:50:00,
2013-06-24 08:55:00,80.0,76.8,30.14,ESE,103,4.0,5.0,90,0.00,,,0.00,Wunderground v.1.15,2013-06-24 12:55:00,
2013-06-24 09:00:00,80.3,77.1,30.14,ESE,103,3.0,3.0,90,0.00,,,0.00,Wunderground v.1.15,2013-06-24 13:00:00,
2013-06-24 09:05:00,80.4,76.9,30.14,ESE,102,3.0,4.0,89,0.00,,,0.00,Wunderground v.1.15,2013-06-24 13:05:00,
2013-06-24 09:10:00,80.7,77.2,30.15,ESE,103,3.0,3.0,89,0.00,,,0.00,Wunderground v.1.15,2013-06-24 13:10:00,
2013-06-24 09:15:00,81.0,77.4,30.14,ESE,105,3.0,4.0,89,0.00,,,0.00,Wunderground v.1.15,2013-06-24 13:15:00,
2013-06-24 09:20:00,81.2,77.3,30.15,ESE,105,3.0,4.0,88,0.00,,,0.00,Wunderground v.1.15,2013-06-24 13:20:00,
2013-06-24 09:25:00,81.4,77.2,30.15,ESE,105,4.0,4.0,87,0.00,,,0.00,Wunderground v.1.15,2013-06-24 13:25:00,
2013-06-24 09:30:00,81.5,77.3,30.15,ESE,110,4.0,6.0,87,0.00,,,0.00,Wunderground v.1.15,2013-06-24 13:30:00,
2013-06-24 09:35:00,81.9,77.6,30.15,ESE,110,4.0,6.0,87,0.00,,,0.00,Wunderground v.1.15,2013-06-24 13:35:00,
2013-06-24 09:40:00,82.2,77.6,30.15,ESE,110,3.0,4.0,86,0.00,,,0.00,Wunderground v.1.15,2013-06-24 13:40:00,
2013-06-24 09:45:00,82.2,77.2,30.14,ESE,110,3.0,4.0,85,0.00,,,0.00,Wunderground v.1.15,2013-06-24 13:45:00,
2013-06-24 09:50:00,82.3,77.3,30.14,ESE,102,4.0,4.0,85,0.00,,,0.00,Wunderground v.1.15,2013-06-24 13:50:00,
2013-06-24 10:00:00,83.1,77.8,30.14,ESE,103,4.0,4.0,84,0.00,,,0.00,Wunderground v.1.15,2013-06-24 14:00:00,
2013-06-24 10:05:00,83.2,77.1,30.14,ESE,103,4.0,4.0,82,0.00,,,0.00,Wunderground v.1.15,2013-06-24 14:05:00,
2013-06-24 10:10:00,82.9,76.8,30.15,ESE,105,4.0,7.0,82,0.00,,,0.00,Wunderground v.1.15,2013-06-24 14:10:00,
2013-06-24 10:15:00,82.3,76.3,30.15,ESE,105,4.0,7.0,82,0.00,,,0.00,Wunderground v.1.15,2013-06-24 14:15:00,
2013-06-24 10:25:00,82.0,76.3,30.15,ESE,109,4.0,5.0,83,0.00,,,0.00,Wunderground v.1.15,2013-06-24 14:25:00,
2013-06-24 10:30:00,82.2,76.5,30.15,ESE,109,4.0,5.0,83,0.00,,,0.00,Wunderground v.1.15,2013-06-24 14:30:00,
2013-06-24 10:35:00,82.3,76.6,30.15,ESE,109,3.0,5.0,83,0.00,,,0.00,Wunderground v.1.15,2013-06-24 14:35:00,
2013-06-24 10:40:00,82.3,76.6,30.16,ESE,109,3.0,3.0,83,0.00,,,0.00,Wunderground v.1.15,2013-06-24 14:40:00,
2013-06-24 10:45:00,82.6,76.5,30.15,ESE,109,3.0,4.0,82,0.00,,,0.00,Wunderground v.1.15,2013-06-24 14:45:00,
2013-06-24 10:55:00,83.2,77.1,30.15,ESE,109,4.0,5.0,82,0.00,,,0.00,Wunderground v.1.15,2013-06-24 14:55:00,
2013-06-24 11:00:00,83.1,75.9,30.15,ESE,109,3.0,3.0,79,0.00,,,0.00,Wunderground v.1.15,2013-06-24 15:00:00,
2013-06-24 11:05:00,83.5,76.7,30.15,ESE,119,4.0,4.0,80,0.00,,,0.00,Wunderground v.1.15,2013-06-24 15:05:00,
2013-06-24 11:15:00,84.6,77.0,30.15,SE,130,4.0,4.0,78,0.00,,,0.00,Wunderground v.1.15,2013-06-24 15:15:00,
2013-06-24 11:20:00,84.6,77.0,30.15,SE,130,3.0,3.0,78,0.00,,,0.00,Wunderground v.1.15,2013-06-24 15:20:00,
2013-06-24 11:25:00,84.3,76.3,30.15,SE,130,3.0,3.0,77,0.00,,,0.00,Wunderground v.1.15,2013-06-24 15:25:00,
2013-06-24 11:30:00,84.3,77.1,30.15,SE,129,2.0,2.0,79,0.00,,,0.00,Wunderground v.1.15,2013-06-24 15:30:00,
2013-06-24 11:35:00,84.4,76.4,30.15,SE,130,2.0,3.0,77,0.00,,,0.00,Wunderground v.1.15,2013-06-24 15:35:00,
2013-06-24 11:45:00,84.8,76.4,30.15,SE,130,3.0,3.0,76,0.00,,,0.00,Wunderground v.1.15,2013-06-24 15:45:00,
2013-06-24 11:55:00,84.9,76.5,30.15,SE,130,2.0,3.0,76,0.00,,,0.00,Wunderground v.1.15,2013-06-24 15:55:00,
2013-06-24 12:06:00,85.9,77.1,30.14,SE,129,3.0,3.0,75,0.00,,,0.00,Wunderground v.1.15,2013-06-24 16:06:00,
2013-06-24 12:10:00,86.4,76.7,30.14,SE,128,3.0,3.0,73,0.00,,,0.00,Wunderground v.1.15,2013-06-24 16:10:00,
2013-06-24 12:15:00,87.1,77.4,30.14,ESE,107,3.0,4.0,73,0.00,,,0.00,Wunderground v.1.15,2013-06-24 16:15:00,
2013-06-24 12:20:00,86.8,76.3,30.14,ESE,106,4.0,4.0,71,0.00,,,0.00,Wunderground v.1.15,2013-06-24 16:20:00,
2013-06-24 12:25:00,86.3,76.2,30.14,ESE,106,3.0,4.0,72,0.00,,,0.00,Wunderground v.1.15,2013-06-24 16:25:00,
2013-06-24 12:30:00,85.8,75.7,30.14,ESE,107,3.0,3.0,72,0.00,,,0.00,Wunderground v.1.15,2013-06-24 16:30:00,
2013-06-24 12:35:00,85.6,76.4,30.14,ESE,107,2.0,3.0,74,0.00,,,0.00,Wunderground v.1.15,2013-06-24 16:35:00,
2013-06-24 12:45:00,86.2,76.5,30.14,ESE,123,4.0,4.0,73,0.00,,,0.00,Wunderground v.1.15,2013-06-24 16:45:00,
2013-06-24 12:50:00,85.9,75.8,30.13,SE,124,4.0,4.0,72,0.00,,,0.00,Wunderground v.1.15,2013-06-24 16:50:00,
2013-06-24 13:00:00,86.0,76.3,30.13,SE,141,4.0,5.0,73,0.00,,,0.00,Wunderground v.1.15,2013-06-24 17:00:00,
2013-06-24 13:05:00,85.9,77.1,30.13,SE,142,5.0,6.0,75,0.00,,,0.00,Wunderground v.1.15,2013-06-24 17:05:00,
2013-06-24 13:15:00,86.0,76.7,30.13,SE,140,1.0,3.0,74,0.00,,,0.00,Wunderground v.1.15,2013-06-24 17:15:00,
2013-06-24 13:20:00,86.4,76.7,30.12,SE,140,2.0,2.0,73,0.00,,,0.00,Wunderground v.1.15,2013-06-24 17:20:00,
2013-06-24 13:25:00,86.9,77.2,30.12,SE,140,2.0,3.0,73,0.00,,,0.00,Wunderground v.1.15,2013-06-24 17:25:00,
2013-06-24 13:35:00,87.9,77.3,30.11,SE,146,3.0,5.0,71,0.00,,,0.00,Wunderground v.1.15,2013-06-24 17:35:00,
2013-06-24 13:40:00,87.9,76.5,30.11,SSE,148,4.0,4.0,69,0.00,,,0.00,Wunderground v.1.15,2013-06-24 17:40:00,
2013-06-24 13:45:00,88.0,76.5,30.11,SSE,148,4.0,4.0,69,0.00,,,0.00,Wunderground v.1.15,2013-06-24 17:45:00,
2013-06-24 13:50:00,87.8,76.8,30.11,SE,145,3.0,3.0,70,0.00,,,0.00,Wunderground v.1.15,2013-06-24 17:50:00,
2013-06-24 13:55:00,88.1,76.2,30.11,SE,146,4.0,6.0,68,0.00,,,0.00,Wunderground v.1.15,2013-06-24 17:55:00,
2013-06-24 14:00:00,88.3,75.5,30.10,SE,146,4.0,6.0,66,0.00,,,0.00,Wunderground v.1.15,2013-06-24 18:00:00,
2013-06-24 14:05:00,87.5,74.7,30.11,SE,146,2.0,6.0,66,0.00,,,0.00,Wunderground v.1.15,2013-06-24 18:05:00,
2013-06-24 14:10:00,87.1,74.8,30.11,SE,146,2.0,2.0,67,0.00,,,0.00,Wunderground v.1.15,2013-06-24 18:10:00,
2013-06-24 14:20:00,88.0,75.7,30.10,SE,139,2.0,4.0,67,0.00,,,0.00,Wunderground v.1.15,2013-06-24 18:20:00,
2013-06-24 14:25:00,88.1,75.3,30.10,SE,139,2.0,4.0,66,0.00,,,0.00,Wunderground v.1.15,2013-06-24 18:25:00,
2013-06-24 14:35:00,88.4,75.6,30.10,ESE,105,3.0,5.0,66,0.00,,,0.00,Wunderground v.1.15,2013-06-24 18:35:00,
2013-06-24 14:45:00,89.2,75.4,30.09,East,96,3.0,5.0,64,0.00,,,0.00,Wunderground v.1.15,2013-06-24 18:45:00,
2013-06-24 14:50:00,89.3,75.0,30.09,East,97,2.0,2.0,63,0.00,,,0.00,Wunderground v.1.15,2013-06-24 18:50:00,
2013-06-24 14:55:00,89.0,74.8,30.09,East,97,2.0,2.0,63,0.00,,,0.00,Wunderground v.1.15,2013-06-24 18:55:00,
2013-06-24 15:00:00,89.2,76.4,30.08,East,97,1.0,1.0,66,0.00,,,0.00,Wunderground v.1.15,2013-06-24 19:00:00,
2013-06-24 15:05:00,89.4,75.1,30.08,East,96,2.0,4.0,63,0.00,,,0.00,Wunderground v.1.15,2013-06-24 19:05:00,
2013-06-24 15:15:00,89.8,75.0,30.08,SE,124,3.0,7.0,62,0.00,,,0.00,Wunderground v.1.15,2013-06-24 19:15:00,
2013-06-24 15:20:00,89.9,75.6,30.08,SSE,148,5.0,5.0,63,0.00,,,0.00,Wunderground v.1.15,2013-06-24 19:20:00,
2013-06-24 15:30:00,90.4,74.6,30.07,SE,134,3.0,3.0,60,0.00,,,0.00,Wunderground v.1.15,2013-06-24 19:30:00,
2013-06-24 15:35:00,90.7,74.4,30.07,SE,139,3.0,3.0,59,0.00,,,0.00,Wunderground v.1.15,2013-06-24 19:35:00,
2013-06-24 15:40:00,90.8,75.0,30.07,SE,138,3.0,4.0,60,0.00,,,0.00,Wunderground v.1.15,2013-06-24 19:40:00,
2013-06-24 15:50:00,90.9,76.1,30.07,ENE,78,4.0,9.0,62,0.00,,,0.00,Wunderground v.1.15,2013-06-24 19:50:00,
2013-06-24 15:55:00,90.6,77.7,30.07,NE,52,4.0,9.0,66,0.00,,,0.00,Wunderground v.1.15,2013-06-24 19:55:00,
2013-06-24 16:00:00,90.5,78.0,30.07,NE,53,4.0,5.0,67,0.00,,,0.00,Wunderground v.1.15,2013-06-24 20:00:00,
2013-06-24 16:05:00,90.2,77.3,30.07,ENE,67,3.0,5.0,66,0.00,,,0.00,Wunderground v.1.15,2013-06-24 20:05:00,
2013-06-24 16:10:00,89.9,77.0,30.07,ENE,66,4.0,4.0,66,0.00,,,0.00,Wunderground v.1.15,2013-06-24 20:10:00,
2013-06-24 16:15:00,89.7,76.8,30.07,ENE,72,4.0,4.0,66,0.00,,,0.00,Wunderground v.1.15,2013-06-24 20:15:00,
2013-06-24 16:20:00,89.3,76.0,30.06,NE,55,5.0,5.0,65,0.00,,,0.00,Wunderground v.1.15,2013-06-24 20:20:00,
2013-06-24 16:30:00,89.1,77.2,30.07,East,82,6.0,7.0,68,0.00,,,0.00,Wunderground v.1.15,2013-06-24 20:30:00,
2013-06-24 16:35:00,88.9,76.5,30.07,ENE,57,6.0,7.0,67,0.00,,,0.00,Wunderground v.1.15,2013-06-24 20:35:00,
2013-06-24 16:40:00,88.5,75.2,30.07,East,89,6.0,6.0,65,0.00,,,0.00,Wunderground v.1.15,2013-06-24 20:40:00,
2013-06-24 16:45:00,87.3,74.1,30.06,ENE,71,6.0,6.0,65,0.00,,,0.00,Wunderground v.1.15,2013-06-24 20:45:00,
2013-06-24 16:55:00,86.9,73.7,30.06,East,83,5.0,7.0,65,0.00,,,0.00,Wunderground v.1.15,2013-06-24 20:55:00,
2013-06-24 17:00:00,87.1,73.9,30.06,ESE,107,5.0,5.0,65,0.00,,,0.00,Wunderground v.1.15,2013-06-24 21:00:00,
2013-06-24 17:05:00,87.1,73.9,30.06,ENE,78,6.0,10.0,65,0.00,,,0.00,Wunderground v.1.15,2013-06-24 21:05:00,
2013-06-24 17:10:00,87.3,76.3,30.05,ENE,74,4.0,4.0,70,0.00,,,0.00,Wunderground v.1.15,2013-06-24 21:10:00,
2013-06-24 17:15:00,87.0,76.0,30.06,East,79,3.0,4.0,70,0.00,,,0.00,Wunderground v.1.15,2013-06-24 21:15:00,
2013-06-24 17:20:00,86.6,76.1,30.05,East,80,2.0,4.0,71,0.00,,,0.00,Wunderground v.1.15,2013-06-24 21:20:00,
2013-06-24 17:25:00,86.5,76.0,30.05,East,79,2.0,4.0,71,0.00,,,0.00,Wunderground v.1.15,2013-06-24 21:25:00,
2013-06-24 17:30:00,86.2,75.7,30.05,East,83,3.0,3.0,71,0.00,,,0.00,Wunderground v.1.15,2013-06-24 21:30:00,
2013-06-24 17:35:00,86.0,76.3,30.05,East,82,2.0,3.0,73,0.00,,,0.00,Wunderground v.1.15,2013-06-24 21:35:00,
2013-06-24 17:40:00,85.8,76.1,30.05,East,84,1.0,1.0,73,0.00,,,0.00,Wunderground v.1.15,2013-06-24 21:40:00,
2013-06-24 17:45:00,85.6,76.4,30.05,East,84,1.0,1.0,74,0.00,,,0.00,Wunderground v.1.15,2013-06-24 21:45:00,
2013-06-24 17:50:00,85.4,76.6,30.05,East,86,1.0,1.0,75,0.00,,,0.00,Wunderground v.1.15,2013-06-24 21:50:00,
2013-06-24 17:55:00,85.3,76.5,30.05,East,96,2.0,2.0,75,0.00,,,0.00,Wunderground v.1.15,2013-06-24 21:55:00,
2013-06-24 18:00:00,85.5,76.7,30.05,East,101,2.0,5.0,75,0.00,,,0.00,Wunderground v.1.15,2013-06-24 22:00:00,
2013-06-24 18:05:00,86.1,76.0,30.05,ESE,115,3.0,5.0,72,0.00,,,0.00,Wunderground v.1.15,2013-06-24 22:05:00,
2013-06-24 18:10:00,86.4,76.3,30.05,ESE,114,5.0,5.0,72,0.00,,,0.00,Wunderground v.1.15,2013-06-24 22:10:00,
2013-06-24 18:15:00,86.7,76.2,30.04,East,90,4.0,5.0,71,0.00,,,0.00,Wunderground v.1.15,2013-06-24 22:15:00,
2013-06-24 18:20:00,87.0,75.6,30.05,ESE,119,4.0,6.0,69,0.00,,,0.00,Wunderground v.1.15,2013-06-24 22:20:00,
2013-06-24 18:25:00,87.1,75.7,30.04,ESE,121,4.0,6.0,69,0.00,,,0.00,Wunderground v.1.15,2013-06-24 22:25:00,
2013-06-24 18:30:00,87.1,75.7,30.04,ESE,113,5.0,5.0,69,0.00,,,0.00,Wunderground v.1.15,2013-06-24 22:30:00,
2013-06-24 18:35:00,86.8,76.3,30.04,ESE,115,4.0,5.0,71,0.00,,,0.00,Wunderground v.1.15,2013-06-24 22:35:00,
2013-06-24 18:40:00,86.7,76.2,30.04,ESE,111,3.0,3.0,71,0.00,,,0.00,Wunderground v.1.15,2013-06-24 22:40:00,
2013-06-24 18:45:00,86.7,75.7,30.04,ESE,109,2.0,3.0,70,0.00,,,0.00,Wunderground v.1.15,2013-06-24 22:45:00,
2013-06-24 18:50:00,86.6,76.1,30.04,ESE,109,1.0,1.0,71,0.00,,,0.00,Wunderground v.1.15,2013-06-24 22:50:00,
2013-06-24 18:55:00,86.7,76.2,30.04,ESE,105,1.0,1.0,71,0.00,,,0.00,Wunderground v.1.15,2013-06-24 22:55:00,
2013-06-24 19:00:00,86.8,76.3,30.04,ESE,105,2.0,2.0,71,0.00,,,0.00,Wunderground v.1.15,2013-06-24 23:00:00,
2013-06-24 19:05:00,86.6,76.1,30.05,ESE,107,3.0,7.0,71,0.00,,,0.00,Wunderground v.1.15,2013-06-24 23:05:00,
2013-06-24 19:10:00,86.3,75.8,30.05,ESE,114,3.0,4.0,71,0.00,,,0.00,Wunderground v.1.15,2013-06-24 23:10:00,
2013-06-24 19:15:00,85.9,75.8,30.05,ESE,114,3.0,4.0,72,0.00,,,0.00,Wunderground v.1.15,2013-06-24 23:15:00,
2013-06-24 19:20:00,85.7,76.0,30.06,ESE,114,2.0,2.0,73,0.00,,,0.00,Wunderground v.1.15,2013-06-24 23:20:00,
2013-06-24 19:25:00,85.5,75.9,30.06,ESE,114,0.0,2.0,73,0.00,,,0.00,Wunderground v.1.15,2013-06-24 23:25:00,
2013-06-24 19:30:00,85.1,75.9,30.06,ESE,111,1.0,1.0,74,0.00,,,0.00,Wunderground v.1.15,2013-06-24 23:30:00,
2013-06-24 19:35:00,84.8,75.6,30.05,ESE,111,1.0,1.0,74,0.00,,,0.00,Wunderground v.1.15,2013-06-24 23:35:00,
2013-06-24 19:40:00,84.4,75.6,30.05,ESE,111,0.0,0.0,75,0.00,,,0.00,Wunderground v.1.15,2013-06-24 23:40:00,
2013-06-24 19:45:00,84.1,75.7,30.06,ESE,111,0.0,0.0,76,0.00,,,0.00,Wunderground v.1.15,2013-06-24 23:45:00,
2013-06-24 19:50:00,83.9,75.5,30.06,ESE,111,1.0,2.0,76,0.00,,,0.00,Wunderground v.1.15,2013-06-24 23:50:00,
2013-06-24 19:55:00,83.6,75.6,30.06,ESE,110,1.0,2.0,77,0.00,,,0.00,Wunderground v.1.15,2013-06-24 23:55:00,
2013-06-24 20:00:00,83.4,75.4,30.06,ESE,111,0.0,0.0,77,0.00,,,0.00,Wunderground v.1.15,2013-06-25 00:00:00,
2013-06-24 20:05:00,83.1,75.1,30.06,ESE,110,0.0,0.0,77,0.00,,,0.00,Wunderground v.1.15,2013-06-25 00:05:00,
2013-06-24 20:15:00,82.8,75.2,30.06,ESE,111,0.0,0.0,78,0.00,,,0.00,Wunderground v.1.15,2013-06-25 00:15:00,
2013-06-24 20:20:00,82.6,75.4,30.06,ESE,110,0.0,0.0,79,0.00,,,0.00,Wunderground v.1.15,2013-06-25 00:20:00,
2013-06-24 20:25:00,82.4,75.2,30.06,ESE,111,0.0,0.0,79,0.00,,,0.00,Wunderground v.1.15,2013-06-25 00:25:00,
2013-06-24 20:30:00,82.2,75.4,30.06,ESE,111,0.0,0.0,80,0.00,,,0.00,Wunderground v.1.15,2013-06-25 00:30:00,
2013-06-24 20:40:00,81.8,75.4,30.06,ESE,110,0.0,0.0,81,0.00,,,0.00,Wunderground v.1.15,2013-06-25 00:40:00,
2013-06-24 20:45:00,81.5,75.1,30.07,ESE,111,0.0,0.0,81,0.00,,,0.00,Wunderground v.1.15,2013-06-25 00:45:00,
2013-06-24 20:50:00,81.2,74.8,30.07,ESE,111,0.0,0.0,81,0.00,,,0.00,Wunderground v.1.15,2013-06-25 00:50:00,
2013-06-24 20:55:00,80.9,74.5,30.07,ESE,111,0.0,0.0,81,0.00,,,0.00,Wunderground v.1.15,2013-06-25 00:55:00,
2013-06-24 21:00:00,80.7,74.3,30.07,ESE,110,0.0,0.0,81,0.00,,,0.00,Wunderground v.1.15,2013-06-25 01:00:00,
2013-06-24 21:05:00,80.5,74.5,30.07,ESE,110,0.0,0.0,82,0.00,,,0.00,Wunderground v.1.15,2013-06-25 01:05:00,
2013-06-24 21:15:00,80.2,74.2,30.07,ESE,111,0.0,0.0,82,0.00,,,0.00,Wunderground v.1.15,2013-06-25 01:15:00,
2013-06-24 21:20:00,80.1,74.1,30.07,ESE,110,0.0,2.0,82,0.00,,,0.00,Wunderground v.1.15,2013-06-25 01:20:00,
2013-06-24 21:25:00,80.0,74.0,30.07,ESE,111,1.0,2.0,82,0.00,,,0.00,Wunderground v.1.15,2013-06-25 01:25:00,
2013-06-24 21:30:00,80.0,74.0,30.08,ESE,111,1.0,1.0,82,0.00,,,0.00,Wunderground v.1.15,2013-06-25 01:30:00,
2013-06-24 21:35:00,80.0,74.0,30.08,ESE,111,1.0,1.0,82,0.00,,,0.00,Wunderground v.1.15,2013-06-25 01:35:00,
2013-06-24 21:40:00,79.9,73.9,30.08,ESE,111,0.0,0.0,82,0.00,,,0.00,Wunderground v.1.15,2013-06-25 01:40:00,
2013-06-24 21:55:00,79.6,74.0,30.09,ESE,110,0.0,2.0,83,0.00,,,0.00,Wunderground v.1.15,2013-06-25 01:55:00,
2013-06-24 22:00:00,79.5,73.9,30.09,ESE,111,1.0,1.0,83,0.00,,,0.00,Wunderground v.1.15,2013-06-25 02:00:00,
2013-06-24 22:05:00,79.4,73.8,30.10,ESE,111,0.0,1.0,83,0.00,,,0.00,Wunderground v.1.15,2013-06-25 02:05:00,
2013-06-24 22:10:00,79.3,73.7,30.10,ESE,111,0.0,0.0,83,0.00,,,0.00,Wunderground v.1.15,2013-06-25 02:10:00,
2013-06-24 22:15:00,79.2,73.6,30.10,ESE,111,0.0,0.0,83,0.00,,,0.00,Wunderground v.1.15,2013-06-25 02:15:00,
2013-06-24 22:20:00,79.1,73.8,30.10,ESE,111,0.0,0.0,84,0.00,,,0.00,Wunderground v.1.15,2013-06-25 02:20:00,
2013-06-24 22:30:00,78.8,73.6,30.11,ESE,111,0.0,0.0,84,0.00,,,0.00,Wunderground v.1.15,2013-06-25 02:30:00,
2013-06-24 22:40:00,78.7,73.8,30.11,ESE,111,0.0,0.0,85,0.00,,,0.00,Wunderground v.1.15,2013-06-25 02:40:00,
2013-06-24 22:45:00,78.7,73.8,30.11,ESE,110,0.0,0.0,85,0.00,,,0.00,Wunderground v.1.15,2013-06-25 02:45:00,
2013-06-24 22:50:00,78.7,73.8,30.11,ESE,111,0.0,2.0,85,0.00,,,0.00,Wunderground v.1.15,2013-06-25 02:50:00,
2013-06-24 22:55:00,78.5,74.0,30.11,ESE,111,1.0,2.0,86,0.00,,,0.00,Wunderground v.1.15,2013-06-25 02:55:00,
2013-06-24 23:00:00,78.4,73.9,30.11,ESE,111,1.0,1.0,86,0.00,,,0.00,Wunderground v.1.15,2013-06-25 03:00:00,
2013-06-24 23:10:00,78.3,73.8,30.11,ESE,111,0.0,0.0,86,0.00,,,0.00,Wunderground v.1.15,2013-06-25 03:10:00,
2013-06-24 23:15:00,78.2,74.0,30.11,ESE,110,0.0,0.0,87,0.00,,,0.00,Wunderground v.1.15,2013-06-25 03:15:00,
2013-06-24 23:20:00,78.1,73.9,30.12,ESE,110,1.0,1.0,87,0.00,,,0.00,Wunderground v.1.15,2013-06-25 03:20:00,
2013-06-24 23:30:00,77.9,73.7,30.13,ESE,111,0.0,0.0,87,0.00,,,0.00,Wunderground v.1.15,2013-06-25 03:30:00,
2013-06-24 23:40:00,77.7,73.9,30.13,ESE,111,0.0,0.0,88,0.00,,,0.00,Wunderground v.1.15,2013-06-25 03:40:00,
2013-06-24 23:50:00,77.6,74.1,30.12,ESE,111,0.0,0.0,89,0.00,,,0.00,Wunderground v.1.15,2013-06-25 03:50:00,
2013-06-24 23:55:00,77.5,74.0,30.12,ESE,110,0.0,0.0,89,0.00,,,0.00,Wunderground v.1.15,2013-06-25 03:55:00,